Miscellaneous Local Product
Issued by NWS North Platte, NE

Home | Current Version | Previous Version | Text Only | Print | Product List | Glossary On
Versions: 1 2 3 4 5 6 7 8 9 10 11 12 13 14 15 16 17 18 19 20 21 22 23 24 25 26 27 28 29 30 31 32 33 34 35 36 37 38 39 40 41 42 43 44 45 46 47 48 49 50
000
AXUS43 KLBF 290710
MISLBF


WESTERN AND NORTH CENTRAL NEBRASKA HOURLY WEATHER ROUNDUP
NATIONAL WEATHER SERVICE NORTH PLATTE NE
200 AM CDT SAT AUG 29 2015

NOTE: "FAIR" INDICATES FEW OR NO CLOUDS BELOW 12,000 FEET WITH NO
SIGNIFICANT WEATHER AND/OR OBSTRUCTIONS TO VISIBILITY.

NOTE: STATIONS NOT REPORTING VARIABLES SUCH AS SKY/WEATHER OR
PRESSURE ARE PROVIDED BY THE NEBRASKA DEPARTMENT OF
ROADS...RAWS...AND APRS NETWORKS...AND ARE NOT UNDER
NATIONAL WEATHER SERVICE QUALITY CONTROL.

...OBSERVATIONS IN AND NEAR THE EASTERN PANHANDLE OF NEBRASKA...

CITY           SKY/WX    TMP DP  RH WIND       PRES   REMARKS
PINE RIDGE     CLEAR     53  49  86 CALM      30.11S
CHADRON        CLEAR     56  49  77 CALM      30.11R
ALLIANCE       CLEAR     55  48  77 CALM      30.16R
SIDNEY         CLEAR     53  42  66 SW8       30.20F
CRESCENT LAKE    N/A     63  55  74 S3          N/A
BIG SPRINGS      N/A     59  55  88 CALM        N/A
$$

...OBSERVATIONS IN NORTH CENTRAL NEBRASKA...

CITY           SKY/WX    TMP DP  RH WIND       PRES   REMARKS
VALENTINE      CLEAR     59  58  96 CALM      30.07F
THEDFORD       CLEAR     56  56  98 S7        30.11F
AINSWORTH      CLEAR     58  57  97 CALM      30.08F
O`NEILL        FOG       59  58  99 CALM      30.06F VSB<1/4
ORD            CLEAR     57  56  96 CALM      30.05F
BROKEN BOW     CLEAR     59  57  93 CALM      30.08F
SPRINGVIEW       N/A     57  55  95 CALM        N/A
SARGENT          N/A     59  58  97 CALM        N/A
CHAMBERS         N/A     58  57  96 CALM        N/A
EWING            N/A     57  54  89 CALM        N/A
$$

...OBSERVATIONS IN SOUTHWEST NEBRASKA AND FAR NORTHEAST COLORADO...

CITY           SKY/WX    TMP DP  RH WIND       PRES   REMARKS
WRAY           FAIR      61  53  76 SW3       30.19R
HOLYOKE        FAIR      59  52  77 W6        30.19S
IMPERIAL       CLEAR     61  57  87 W3        30.16R
OGALLALA       CLEAR     56  53  91 CALM      30.15S
NORTH PLATTE   CLEAR     55  53  93 CALM      30.13R
MCCOOK         CLEAR     62  59  90 CALM      30.12R
LEXINGTON      CLEAR     58  57  96 NW6       30.10R
PAXTON           N/A     59  56  91 CALM        N/A
BRADY            N/A     56  53  89 CALM        N/A
CALLAWAY         N/A     54  53  95 CALM        N/A
$$

...OBSERVATIONS IN CENTRAL LINCOLN COUNTY AREA...

CITY           SKY/WX    TMP DP  RH WIND       PRES   REMARKS
N.P. AIRPORT   CLEAR     55  53  93 CALM      30.13R
N.P. DOWNTOWN    N/A     61  59  94 CALM        N/A
$$

...SOME OBSERVATIONS FROM AROUND THE REGION...

CITY           SKY/WX    TMP DP  RH WIND       PRES   REMARKS
DENVER         PTCLDY    64  38  38 SW9       30.29S
LARAMIE        CLEAR     55  39  54 S10       30.38F
CHEYENNE       CLEAR     54  45  71 W7        30.33S
SCOTTSBLUFF    CLEAR     61  50  67 CALM      30.17S
RAPID CITY     CLEAR     60  56  86 NW3       30.07F
PIERRE         CLEAR     66  63  90 S5        29.97F
WINNER         FAIR      67  61  81 S7        30.03F
SIOUX FALLS    CLEAR     55  54  96 CALM      30.03F
OMAHA          CLOUDY    63  62  97 N10       29.97S
GRAND ISLAND   CLEAR     61  60  97 N8        30.05S
KANSAS CITY    CLOUDY    70  68  93 S5        29.93F
WICHITA        CLEAR     73  67  81 N9        29.98F
HAYS           CLEAR     63  54  72 NW5       30.07S
LIBERAL        PTCLDY    73  57  56 E10       30.11R
GOODLAND       CLEAR     62  57  83 S5        30.18S
$$



USA.gov is the U.S. government's official web portal to all federal, state and local government web resources and services.